[[{"header":{"parameterUnit":"m.s-1","parameterCategory":1,"la1":30.2991,"la2":30.254,"lo1":-89.0895,"lo2":-89.0444,"dy":0.0017,"dx":0.0017,"nx":28,"ny":28,"refTime":"2025-12-04T09:00:00:Z","depth":0,"parameterNumber":2,"parameterNumberName":"U-component_of_WINDS"},"data":[0,0,0,0,0,0,0,0,0,0,0,0,0,0,0,0,0,0,0,0,0,0,0,0,0,0,0,0,0,0,0,0,0,0,0,0,0,0,0,0,0,0,0,0,0,0,0,0,0,0,0,0,0,0,0,0,0,0,-4.505,-4.5051,0,-4.5142,-4.5143,-4.5144,-4.4968,-4.4963,-4.4957,-4.4951,-4.5049,-4.5057,-4.5065,0,0,0,0,0,0,0,0,0,0,0,0,0,-4.4727,-4.4734,-4.505,-4.5051,-4.5052,-4.5142,-4.5143,-4.5145,-4.4969,-4.4962,-4.4955,-4.4949,-4.5047,-4.5056,-4.5066,0,0,0,0,0,0,0,0,0,0,0,0,0,-4.4848,-4.4736,-4.505,-4.4976,-4.497,-4.5142,-4.5143,-4.5145,-4.4971,-4.4962,-4.4953,-4.4945,-4.5043,-4.5055,-4.5067,-4.5316,0,0,-4.5104,-4.5109,0,0,0,0,0,0,0,0,-4.4842,-4.486,-4.4986,-4.4981,-4.4975,-4.5035,-4.5065,-4.5203,-4.4973,-4.4971,-4.4951,-4.4941,-4.5052,-4.5063,-4.5099,-4.5321,-4.5325,-4.5105,-4.5112,-4.5117,-4.5121,0,0,0,0,0,0,0,-4.4833,-4.4855,-4.5086,-4.4988,-4.4981,-4.4939,-4.4947,-4.509,-4.5059,-4.497,-4.4958,-4.4971,-4.5047,-4.5088,-4.51,-4.5327,-4.5105,-4.5115,-4.5123,-4.5127,-4.576,-4.5769,0,0,0,0,0,0,-4.4834,-4.4849,-4.5084,-4.5089,-4.4885,-4.4952,-4.4961,-4.5025,-4.5057,-4.5054,-4.4978,-4.4962,-4.5072,-4.5086,-4.5103,-4.5399,-4.5117,-4.5129,-4.5136,-4.5751,-4.5762,-4.5773,0,0,0,0,0,0,-4.4827,-4.4856,-4.508,-4.4966,-4.4991,-4.4967,-4.504,-4.5031,-4.5071,-4.5063,-4.5057,-4.5025,-4.5065,-4.5086,-4.5265,-4.54,-4.5134,-4.5145,-4.574,-4.5754,-4.5768,-4.5993,0,0,0,0,0,0,-4.4819,-4.4855,-4.4949,-4.4969,-4.4998,-4.524,-4.5048,-4.5039,-4.5092,-4.5072,-4.5106,-4.5103,-4.506,-4.5248,-4.5277,-4.5412,-4.5154,-4.5727,-4.5746,-4.5763,-4.5973,-4.6013,-4.6047,0,0,0,0,0,-4.4808,-4.5008,-4.4954,-4.4983,-4.5114,-4.5248,-4.5264,-4.521,-4.5104,-4.5199,-4.5193,-4.5102,-4.538,-4.5268,-4.5299,-4.544,-4.5719,-4.5741,-4.5762,-4.5957,-4.6005,-4.6046,0,0,0,0,0,0,-4.5005,-4.501,-4.495,-4.5162,-4.5206,-4.5218,-4.5336,-4.5263,-4.5338,-4.5317,-4.5247,-4.5256,-4.545,-4.5462,-4.5337,-4.5684,-4.5532,-4.5561,-4.5669,-4.5715,-4.5752,-4.5746,-4.5164,0,0,0,0,0,-4.5073,-4.518,-4.5179,-4.5367,-4.5392,-4.5361,-4.5417,-4.5371,-4.5414,-4.5432,-4.5439,-4.5486,-4.5583,-4.5649,-4.5739,-4.5973,-4.598,-4.6086,-4.6123,-4.6153,-4.618,-4.6307,-4.6355,-4.5844,-4.5843,-4.5843,0,0,-4.5215,-4.5231,-4.5303,-4.5407,-4.5435,-4.555,-4.5377,-4.5505,-4.5589,-4.5451,-4.5621,-4.5629,-4.5676,-4.5885,-4.5977,-4.5901,-4.6322,-4.618,-4.6205,-4.6215,-4.6335,-4.6383,-4.6426,-4.5858,-4.5856,-4.5853,0,0,-4.5532,-4.5554,-4.5715,-4.5747,-4.5792,-4.577,-4.5809,-4.5832,-4.5832,-4.6001,-4.59,-4.6,-4.617,-4.6208,-4.625,-4.6584,-4.6504,-4.6615,-4.6809,-4.6935,-4.6975,-4.7011,-4.7133,-4.7177,-4.6641,-4.6642,-4.6642,0,-4.5704,-4.5871,-4.5806,-4.5942,-4.5992,-4.5871,-4.6034,-4.6069,-4.6142,-4.618,-4.6093,-4.6304,-4.6327,-4.6544,-4.6626,-4.6663,-4.6707,-4.6612,-4.6974,-4.7009,-4.7041,-4.7157,-4.7203,-4.6655,-4.6654,-4.6652,-4.6651,0,-4.6081,-4.6198,-4.6322,-4.6396,-4.6459,-4.6608,-4.6568,-4.664,-4.659,-4.6578,-4.6753,-4.6776,-4.6869,-4.6917,-4.6868,-4.7129,-4.708,-4.6985,-4.6831,-4.7105,-4.7212,-4.7256,-4.6674,-4.667,-4.6666,-4.6662,0,0,-4.6526,-4.6562,-4.6609,-4.6642,-4.6683,-4.6774,-4.6918,-4.7008,-4.7073,-4.7127,-4.7248,-4.7395,-4.7307,-4.7355,-4.731,-4.7419,-4.7687,-4.7311,-4.7311,-4.7382,-4.7978,-4.8052,-4.8104,-4.7632,-4.764,-4.7647,-4.7975,0,-4.6843,-4.7091,-4.7038,-4.7282,-4.7392,-4.7279,-4.7405,-4.7445,-4.7438,-4.7531,-4.7522,-4.7629,-4.7503,-4.7532,-4.7635,-4.7632,-4.7806,-4.7607,-4.7747,-4.7753,-4.7742,-4.816,-4.8237,-4.8546,-4.8017,-4.8024,-4.8029,0,-4.7247,-4.7317,-4.7572,-4.7598,-4.7642,-4.7756,-4.7836,-4.7925,-4.7969,-4.7956,-4.801,-4.7944,-4.8089,-4.7932,-4.8132,-4.7999,-4.8053,-4.806,-4.807,-4.8084,-4.7909,-4.8187,-4.8643,-4.8691,-4.8094,-4.8089,-4.8084,0,-4.755,-4.7708,-4.7881,-4.7912,-4.7946,-4.803,-4.8048,-4.8082,-4.8141,-4.8211,-4.8249,-4.8335,-4.8383,-4.8452,-4.8412,-4.8301,-4.8621,-4.8459,-4.8617,-4.8618,-4.8691,-4.8688,-4.9165,-4.8722,-4.8721,-4.872,-4.8719,0,-4.7912,-4.8073,-4.8018,-4.8126,-4.8304,-4.8242,-4.842,-4.8425,-4.8458,-4.8565,-4.8472,-4.8575,-4.8514,-4.8614,-4.8583,-4.8755,-4.8777,-4.8772,-4.8763,-4.8783,-4.8784,-4.8819,-4.8798,-4.8732,-4.873,-4.8727,-4.8725,0,-4.8282,-4.8251,-4.8433,-4.845,-4.8459,-4.859,-4.8605,-4.8706,-4.8691,-4.8829,-4.8857,-4.8836,-4.8948,-4.8914,-4.9034,-4.9014,-4.9233,-4.9195,-4.9219,-4.9211,-4.9371,-4.9358,-4.989,-4.9958,-4.9468,-4.9473,-4.9477,0,-4.8516,-4.8638,-4.8668,-4.8733,-4.8758,-4.8864,-4.8923,-4.8867,-4.8933,-4.8993,-4.9088,-4.9191,-4.9271,-4.9455,-4.9452,-4.9544,-4.9509,-4.9689,-4.9522,-4.9539,-4.9515,-4.951,-4.9523,-4.9724,-4.9729,-4.9734,-4.9737,0,-4.8936,-4.8915,-4.9004,-4.9089,-4.9163,-4.9227,-4.9282,-4.9341,-4.9289,-4.9368,-4.9481,-4.9543,-4.9666,-4.9772,-4.9856,-4.9875,-4.98,-4.979,-4.9831,-4.9854,-4.9865,-4.9864,-4.9313,-4.9778,-4.9774,-4.9771,-4.9769,-4.9767,-4.9247,-4.9351,-4.939,-4.9492,-4.9528,-4.9583,-4.9679,-4.9677,-4.977,-4.9866,-4.9827,-4.9958,-5.0,-5.0106,-5.0137,-5.0239,-5.017,-5.023,-5.0246,-5.0263,-5.0284,-4.9846,-5.0254,-5.0253,-5.0252,-5.0251,-5.025,0,-4.9665,-4.9685,-4.978,-4.9861,-4.9943,-4.9862,-4.992,-4.9994,-5.011,-5.0155,-5.0236,-5.0368,-5.0469,-5.0473,-5.0569,-5.0651,-5.0619,-5.0678,-5.0673,-5.0679,-5.0339,-5.0295,-5.0702,-5.0702,-5.0702,-5.0702,-5.0702,-5.0702,-4.9893,-5.0065,-5.005,-5.024,-5.0257,-5.0385,-5.0425,-5.0476,-5.0512,-5.0663,-5.0747,-5.0748,-5.0778,-5.0875,-5.0965,-5.0964,-5.1005,-5.1079,-5.1065,-5.0748,-5.0703,-5.066,-5.0618,-5.1087,-5.1088,-5.1396,-5.1399,-5.1402]},{"header":{"parameterUnit":"m.s-1","parameterCategory":1,"la1":30.2991,"la2":30.254,"lo1":-89.0895,"lo2":-89.0444,"dy":0.0017,"dx":0.0017,"nx":28,"ny":28,"refTime":"2025-12-04T09:00:00:Z","depth":0,"parameterNumber":3,"parameterNumberName":"V-component_of_WINDS"},"data":[0,0,0,0,0,0,0,0,0,0,0,0,0,0,0,0,0,0,0,0,0,0,0,0,0,0,0,0,0,0,0,0,0,0,0,0,0,0,0,0,0,0,0,0,0,0,0,0,0,0,0,0,0,0,0,0,0,0,-3.36,-3.3598,0,-3.3411,-3.3409,-3.3406,-3.3314,-3.3314,-3.3314,-3.3314,-3.311,-3.3105,-3.31,0,0,0,0,0,0,0,0,0,0,0,0,0,-3.3871,-3.3866,-3.36,-3.3598,-3.3596,-3.3411,-3.3408,-3.3406,-3.3314,-3.3314,-3.3314,-3.3314,-3.3112,-3.3106,-3.3099,0,0,0,0,0,0,0,0,0,0,0,0,0,-3.3724,-3.3865,-3.3601,-3.3528,-3.3519,-3.3412,-3.3408,-3.3405,-3.3314,-3.3314,-3.3314,-3.3314,-3.3114,-3.3106,-3.3098,-3.3046,0,0,-3.3073,-3.307,0,0,0,0,0,0,0,0,-3.3733,-3.3715,-3.3541,-3.3533,-3.3523,-3.3386,-3.3429,-3.3284,-3.3314,-3.3392,-3.3314,-3.3314,-3.3201,-3.3186,-3.315,-3.3037,-3.3028,-3.3073,-3.3068,-3.3064,-3.3062,0,0,0,0,0,0,0,-3.3743,-3.3722,-3.3525,-3.3538,-3.3527,-3.35,-3.348,-3.3401,-3.3298,-3.3385,-3.3378,-3.3357,-3.3196,-3.3158,-3.3145,-3.3025,-3.3073,-3.3065,-3.306,-3.3057,-3.2853,-3.2852,0,0,0,0,0,0,-3.3767,-3.3731,-3.3531,-3.3519,-3.3631,-3.3496,-3.3472,-3.343,-3.3299,-3.3279,-3.3357,-3.3353,-3.3172,-3.3154,-3.3137,-3.3063,-3.3064,-3.3056,-3.3052,-3.2853,-3.2852,-3.2852,0,0,0,0,0,0,-3.3773,-3.375,-3.3539,-3.3623,-3.3594,-3.3491,-3.3444,-3.3426,-3.3388,-3.3278,-3.3258,-3.3338,-3.3172,-3.3149,-3.3069,-3.3055,-3.3053,-3.3045,-3.2854,-3.2853,-3.2852,-3.2919,0,0,0,0,0,0,-3.3781,-3.3753,-3.3735,-3.3624,-3.359,-3.3478,-3.3443,-3.3422,-3.3375,-3.3368,-3.3254,-3.3236,-3.317,-3.3081,-3.3061,-3.3044,-3.3039,-3.2854,-3.2853,-3.2852,-3.2917,-3.2921,-3.2923,0,0,0,0,0,-3.3791,-3.376,-3.3734,-3.3711,-3.3567,-3.3477,-3.3457,-3.3385,-3.3375,-3.3353,-3.3282,-3.3239,-3.3061,-3.3074,-3.305,-3.3031,-3.2855,-3.2854,-3.2852,-3.2916,-3.292,-3.2923,0,0,0,0,0,0,-3.387,-3.3745,-3.3714,-3.3648,-3.3574,-3.3462,-3.3433,-3.3392,-3.3318,-3.3315,-3.3225,-3.32,-3.3127,-3.3071,-3.3088,-3.297,-3.2953,-3.2947,-3.301,-3.3012,-3.3015,-3.3029,-3.3032,0,0,0,0,0,-3.388,-3.3822,-3.3714,-3.3665,-3.363,-3.3538,-3.3496,-3.3447,-3.3366,-3.3333,-3.3256,-3.3176,-3.3101,-3.3054,-3.2979,-3.2909,-3.288,-3.2883,-3.2886,-3.2889,-3.2884,-3.2837,-3.2836,-3.2848,-3.2848,-3.2848,0,0,-3.39,-3.3824,-3.3792,-3.3679,-3.3616,-3.3553,-3.3512,-3.3449,-3.3399,-3.3322,-3.3242,-3.3183,-3.3087,-3.3011,-3.2973,-3.2961,-3.2874,-3.2888,-3.2891,-3.2884,-3.2836,-3.2835,-3.2834,-3.2847,-3.2847,-3.2847,0,0,-3.3903,-3.3841,-3.3792,-3.373,-3.3636,-3.3574,-3.3563,-3.3456,-3.3414,-3.3332,-3.3272,-3.321,-3.3085,-3.3018,-3.2967,-3.2941,-3.2897,-3.2919,-3.2933,-3.2889,-3.2888,-3.2886,-3.2873,-3.287,-3.2915,-3.2915,-3.2915,0,-3.3938,-3.3845,-3.3771,-3.371,-3.3659,-3.3589,-3.3535,-3.3477,-3.3363,-3.3327,-3.3317,-3.3155,-3.3086,-3.2991,-3.2984,-3.2947,-3.2926,-3.2931,-3.2895,-3.2892,-3.289,-3.2876,-3.2872,-3.2918,-3.2917,-3.2917,-3.2917,0,-3.389,-3.3826,-3.3796,-3.3689,-3.3636,-3.3579,-3.3493,-3.3446,-3.34,-3.3339,-3.3254,-3.3168,-3.3073,-3.3047,-3.3001,-3.2943,-3.2938,-3.2913,-3.2893,-3.2893,-3.2878,-3.2873,-3.2922,-3.2921,-3.292,-3.2919,0,0,-3.3939,-3.379,-3.3781,-3.3729,-3.3619,-3.3565,-3.3502,-3.3412,-3.3372,-3.3294,-3.3236,-3.313,-3.3104,-3.3047,-3.2992,-3.2954,-3.2933,-3.2931,-3.2927,-3.2932,-3.2858,-3.2877,-3.2872,-3.2904,-3.2902,-3.2901,-3.2865,0,-3.3924,-3.3812,-3.3743,-3.3657,-3.3593,-3.3524,-3.3468,-3.3392,-3.3332,-3.3265,-3.3197,-3.3122,-3.3096,-3.306,-3.3019,-3.2945,-3.2916,-3.2946,-3.2844,-3.2841,-3.2869,-3.2865,-3.2885,-3.2856,-3.2859,-3.2858,-3.2857,0,-3.3892,-3.3818,-3.3727,-3.3619,-3.359,-3.3542,-3.3451,-3.3391,-3.33,-3.3258,-3.3193,-3.3138,-3.3064,-3.3052,-3.2945,-3.2967,-3.292,-3.2877,-3.2874,-3.2859,-3.2848,-3.2848,-3.2845,-3.2839,-3.2848,-3.2849,-3.285,0,-3.3933,-3.3809,-3.3738,-3.3696,-3.357,-3.3537,-3.3483,-3.3393,-3.3341,-3.326,-3.3225,-3.3136,-3.3086,-3.3016,-3.2936,-3.2935,-3.2835,-3.2818,-3.2795,-3.2797,-3.2776,-3.2778,-3.2762,-3.2751,-3.2751,-3.2751,-3.2751,0,-3.3922,-3.3868,-3.3754,-3.371,-3.3645,-3.3563,-3.35,-3.3439,-3.3359,-3.3298,-3.3231,-3.3175,-3.3074,-3.3003,-3.294,-3.2859,-3.2837,-3.2798,-3.2781,-3.2803,-3.2807,-3.277,-3.2768,-3.275,-3.275,-3.275,-3.275,0,-3.3956,-3.3878,-3.3795,-3.3682,-3.3652,-3.3609,-3.351,-3.3462,-3.3398,-3.3321,-3.3298,-3.3196,-3.3109,-3.3023,-3.2905,-3.2862,-3.2781,-3.276,-3.2812,-3.2802,-3.2783,-3.2785,-3.2741,-3.2729,-3.2729,-3.2729,-3.2729,0,-3.3954,-3.3911,-3.3793,-3.3749,-3.3696,-3.3626,-3.3573,-3.3489,-3.3436,-3.3328,-3.3291,-3.32,-3.3122,-3.2985,-3.2898,-3.2806,-3.2781,-3.2771,-3.2766,-3.2788,-3.2776,-3.2779,-3.2772,-3.2773,-3.2774,-3.2774,-3.2775,0,-3.3956,-3.3919,-3.3848,-3.3761,-3.37,-3.3627,-3.3552,-3.3518,-3.3418,-3.3361,-3.3273,-3.3213,-3.3092,-3.3,-3.2898,-3.2836,-3.2787,-3.2777,-3.2766,-3.2786,-3.2817,-3.2797,-3.2816,-3.2778,-3.2778,-3.2777,-3.2777,-3.2777,-3.3969,-3.3926,-3.3836,-3.3757,-3.3692,-3.3622,-3.357,-3.3499,-3.3425,-3.3323,-3.3276,-3.3186,-3.3091,-3.2949,-3.2888,-3.2813,-3.28,-3.2785,-3.2781,-3.2778,-3.2781,-3.2831,-3.2794,-3.2794,-3.2793,-3.2793,-3.2793,0,-3.3966,-3.3904,-3.3832,-3.3729,-3.3665,-3.3628,-3.3541,-3.3489,-3.3411,-3.3329,-3.3254,-3.3149,-3.3059,-3.2964,-3.2867,-3.2824,-3.2799,-3.2801,-3.2802,-3.2787,-3.28,-3.2817,-3.2823,-3.2823,-3.2823,-3.2823,-3.2823,-3.2823,-3.3956,-3.388,-3.3832,-3.372,-3.3657,-3.3571,-3.3524,-3.3457,-3.339,-3.3278,-3.3203,-3.3143,-3.3053,-3.2948,-3.2862,-3.2835,-3.2801,-3.281,-3.2777,-3.2789,-3.2787,-3.2785,-3.2801,-3.2804,-3.2804,-3.277,-3.277,-3.277]}]]